Weather History for Hurlburt Field, FL

Change the Weather History Date:

Monday, November 11, 2013

  Actual Average Record
Temperature  
Mean Temperature 60 °F -  
Max Temperature 75 °F 70 °F 78 °F (1999)
Min Temperature 46 °F 50 °F 33 °F (2011)
Degree Days  
Heating Degree Days 4    
Growing Degree Days 10 (Base 50)    
Moisture  
Dew Point 42 °F    
Average Humidity 49    
Maximum Humidity 87    
Minimum Humidity 25    
Precipitation  
Precipitation 0.00 in - - ()
Sea Level Pressure  
Sea Level Pressure 30.18 in    
Wind  
Wind Speed 6 mph (ENE)    
Max Wind Speed 9 mph    
Max Gust Speed -    
Visibility 10 miles    
Events Rain    
Averages and records for this station are not official NWS values.
T = Trace of Precipitation, MM = Missing Value Source: NWS Daily Summary

Daily Weather History Graph

Daily Weather History Graph

Search for Another Location

Airport:

Trip Planner

Search our weather history database for the weather conditions in past years. The results will help you decide how hot, cold, wet, or windy it might be!

Date:

Astronomy

Nov. 11, 2013 Rise Set
Actual Time 6:09 AM CST 4:51 PM CST
Civil Twilight 5:44 AM CST 5:17 PM CST
Nautical Twilight 5:15 AM CST 5:45 PM CST
Astronomical Twilight 4:46 AM CST 6:14 PM CST
Moon 1:09 PM CST (11/11) 12:18 AM CST (11/11)
Length of Visible Light 11h 32m
Length of Day
10h 42m
Waxing Gibbous, 66% of the Moon is Illuminated
Nov 11
Waxing Gibbous
Nov 17
Full
Nov 25
Last Quarter
Dec 2
New
Dec 9
First Quarter

Hourly Weather History & Observations

Time (CST) Temp. Dew Point Humidity Pressure Visibility Wind Dir Wind Speed Gust Speed Precip Events Conditions
12:58 AM 52.0 °F 46.2 °F 81% 30.20 in 10.0 mi Variable 5.8 mph - N/A   Clear
1:58 AM 50.5 °F 45.7 °F 83% 30.19 in 10.0 mi North 6.9 mph - N/A   Clear
2:58 AM 50.7 °F 44.8 °F 80% 30.19 in 10.0 mi North 5.8 mph - N/A   Clear
3:58 AM 50.9 °F 44.6 °F 79% 30.19 in 10.0 mi North 4.6 mph - N/A   Clear
4:58 AM 47.5 °F 43.9 °F 87% 30.20 in 10.0 mi North 6.9 mph - N/A   Partly Cloudy
5:58 AM 46.6 °F 42.4 °F 85% 30.21 in 10.0 mi North 6.9 mph - N/A   Clear
6:58 AM 51.4 °F 44.2 °F 76% 30.22 in 10.0 mi NE 5.8 mph - N/A   Clear
7:58 AM 60.6 °F 45.0 °F 56% 30.23 in 10.0 mi ENE 6.9 mph - N/A   Clear
8:58 AM 66.6 °F 42.1 °F 41% 30.24 in 10.0 mi East 9.2 mph - N/A   Clear
9:58 AM 70.3 °F 41.5 °F 35% 30.23 in 10.0 mi East 6.9 mph - N/A   Clear
10:43 AM 71.6 °F 39.2 °F 31% 30.20 in 10.0 mi East 8.1 mph - N/A   Light Drizzle
10:57 AM 71.6 °F 39.2 °F 31% 30.20 in 10.0 mi East 6.9 mph - N/A   Clear
10:58 AM 71.6 °F 39.2 °F 31% 30.21 in 10.0 mi East 5.8 mph - 0.00 in   Clear
11:28 AM 73.4 °F 39.2 °F 29% 30.19 in 10.0 mi Variable 1.2 mph - N/A   Light Drizzle
11:32 AM 73.4 °F 39.2 °F 29% 30.19 in 10.0 mi ESE 5.8 mph - N/A   Clear
11:58 AM 74.1 °F 38.7 °F 28% 30.18 in 10.0 mi ESE 5.8 mph - 0.00 in   Clear
11:59 AM 73.4 °F 37.4 °F 27% 30.17 in 10.0 mi ESE 4.6 mph - N/A Rain Light Rain
12:09 PM 75.2 °F 39.2 °F 27% 30.17 in 10.0 mi SE 3.5 mph - N/A   Clear
12:11 PM 75.2 °F 39.2 °F 27% 30.17 in 10.0 mi Variable 2.3 mph - N/A Rain Light Rain
12:13 PM 75.2 °F 39.2 °F 27% 30.17 in 10.0 mi East 4.6 mph - N/A   Clear
12:16 PM 75.2 °F 39.2 °F 27% 30.17 in 10.0 mi Variable 2.3 mph - N/A Rain Light Rain
12:37 PM 75.2 °F 41.0 °F 29% 30.16 in 10.0 mi South 6.9 mph - N/A   Clear
12:58 PM 74.1 °F 39.2 °F 28% 30.16 in 10.0 mi South 6.9 mph - 0.00 in   Clear
12:59 PM 73.4 °F 39.2 °F 29% 30.15 in 10.0 mi South 8.1 mph - N/A   Light Drizzle
1:23 PM 75.2 °F 37.4 °F 25% 30.14 in 10.0 mi SSE 6.9 mph - N/A   Clear
1:33 PM 75.2 °F 39.2 °F 27% 30.14 in 10.0 mi SSE 8.1 mph - N/A   Light Drizzle
1:43 PM 73.4 °F 37.4 °F 27% 30.14 in 10.0 mi South 8.1 mph - N/A   Clear
1:58 PM 74.3 °F 37.9 °F 27% 30.14 in 10.0 mi SE 9.2 mph - 0.00 in   Clear
2:58 PM 72.1 °F 42.1 °F 34% 30.14 in 10.0 mi SSW 5.8 mph - N/A   Clear
3:57 PM 71.6 °F 44.6 °F 38% 30.13 in 10.0 mi SW 4.6 mph - N/A   Light Drizzle
3:58 PM 71.6 °F 44.6 °F 38% 30.14 in 10.0 mi SW 4.6 mph - N/A   Light Drizzle
4:07 PM 69.8 °F 42.8 °F 38% 30.13 in 10.0 mi SW 3.5 mph - N/A   Clear
4:58 PM 67.6 °F 47.3 °F 48% 30.15 in 10.0 mi West 3.5 mph - 0.00 in   Clear
5:58 PM 64.2 °F 48.6 °F 57% 30.15 in 10.0 mi North 2.3 mph - N/A   Clear
6:58 PM 56.1 °F 48.9 °F 77% 30.16 in 10.0 mi North 3.5 mph - N/A   Clear
7:58 PM 54.7 °F 48.6 °F 80% 30.17 in 10.0 mi North 3.5 mph - N/A   Clear
8:58 PM 52.7 °F 48.0 °F 84% 30.18 in 10.0 mi North 2.3 mph - N/A   Clear
9:58 PM 52.0 °F 47.5 °F 85% 30.18 in 10.0 mi North 3.5 mph - N/A   Clear
10:58 PM 50.5 °F 46.2 °F 85% 30.17 in 10.0 mi North 5.8 mph - N/A   Clear
11:58 PM 49.3 °F 45.1 °F 86% 30.16 in 10.0 mi North 5.8 mph - N/A   Clear